Time,TemperatureF,DewpointF,PressureIn,WindDirection,WindDirectionDegrees,WindSpeedMPH,WindSpeedGustMPH,Humidity,HourlyPrecipIn,Conditions,Clouds,dailyrainin,SoftwareType,DateUTC
2013-03-29 00:00:00,39.0,31.1,30.32,ENE,72,5.0,7.0,73,0.00,,,0.00,Wunderground v.1.15,2013-03-29 05:00:00,
2013-03-29 00:02:00,38.9,31.0,30.32,ENE,72,5.0,7.0,73,0.00,,,0.00,Wunderground v.1.15,2013-03-29 05:02:00,
2013-03-29 00:06:00,38.6,31.0,30.32,East,82,5.0,7.0,74,0.00,,,0.00,Wunderground v.1.15,2013-03-29 05:06:00,
2013-03-29 00:08:00,38.4,30.8,30.32,East,79,5.0,7.0,74,0.00,,,0.00,Wunderground v.1.15,2013-03-29 05:08:00,
2013-03-29 00:10:00,38.4,30.8,30.32,East,86,5.0,7.0,74,0.00,,,0.00,Wunderground v.1.15,2013-03-29 05:10:00,
2013-03-29 00:16:00,38.4,30.8,30.32,East,85,5.0,7.0,74,0.00,,,0.00,Wunderground v.1.15,2013-03-29 05:16:00,
2013-03-29 00:18:00,38.1,30.9,30.32,East,95,5.0,7.0,75,0.00,,,0.00,Wunderground v.1.15,2013-03-29 05:18:00,
2013-03-29 00:22:00,37.8,30.9,30.32,East,93,5.0,7.0,76,0.00,,,0.00,Wunderground v.1.15,2013-03-29 05:22:00,
2013-03-29 00:24:00,37.7,30.8,30.32,East,96,5.0,7.0,76,0.00,,,0.00,Wunderground v.1.15,2013-03-29 05:24:00,
2013-03-29 00:28:00,37.7,31.1,30.32,East,101,5.0,7.0,77,0.00,,,0.00,Wunderground v.1.15,2013-03-29 05:28:00,
2013-03-29 00:32:00,37.5,30.9,30.32,ESE,117,5.0,7.0,77,0.00,,,0.00,Wunderground v.1.15,2013-03-29 05:32:00,
2013-03-29 00:38:00,37.7,30.5,30.32,SE,133,4.0,7.0,75,0.00,,,0.00,Wunderground v.1.15,2013-03-29 05:38:00,
2013-03-29 00:42:00,37.7,30.5,30.32,ESE,116,3.0,7.0,75,0.00,,,0.00,Wunderground v.1.15,2013-03-29 05:42:00,
2013-03-29 00:48:00,38.0,30.4,30.32,ESE,115,2.0,7.0,74,0.00,,,0.00,Wunderground v.1.15,2013-03-29 05:48:00,
2013-03-29 00:50:00,38.1,30.2,30.32,East,101,3.0,7.0,73,0.00,,,0.00,Wunderground v.1.15,2013-03-29 05:50:00,
2013-03-29 00:54:00,38.3,30.4,30.32,ESE,106,3.0,7.0,73,0.00,,,0.00,Wunderground v.1.15,2013-03-29 05:54:00,
2013-03-29 00:56:00,38.3,30.4,30.32,ESE,105,3.0,7.0,73,0.00,,,0.00,Wunderground v.1.15,2013-03-29 05:56:00,
2013-03-29 00:58:00,38.3,30.4,30.32,ESE,112,3.0,7.0,73,0.00,,,0.00,Wunderground v.1.15,2013-03-29 05:58:00,
2013-03-29 01:02:00,38.1,30.2,30.32,ESE,123,3.0,7.0,73,0.00,,,0.00,Wunderground v.1.15,2013-03-29 06:02:00,
2013-03-29 01:04:00,38.1,30.2,30.32,SE,127,3.0,7.0,73,0.00,,,0.00,Wunderground v.1.15,2013-03-29 06:04:00,
2013-03-29 01:06:00,38.0,30.1,30.32,SE,132,2.0,7.0,73,0.00,,,0.00,Wunderground v.1.15,2013-03-29 06:06:00,
2013-03-29 01:10:00,37.8,30.3,30.32,South,191,2.0,2.0,74,0.00,,,0.00,Wunderground v.1.15,2013-03-29 06:10:00,
2013-03-29 01:14:00,37.3,30.4,30.32,SSW,208,1.0,7.0,76,0.00,,,0.00,Wunderground v.1.15,2013-03-29 06:14:00,
2013-03-29 01:18:00,36.8,30.3,30.32,SSW,208,0.0,7.0,77,0.00,,,0.00,Wunderground v.1.15,2013-03-29 06:18:00,
2013-03-29 01:20:00,36.7,30.2,30.32,SSW,209,0.0,7.0,77,0.00,,,0.00,Wunderground v.1.15,2013-03-29 06:20:00,
2013-03-29 01:22:00,36.5,30.3,30.32,SSW,209,0.0,7.0,78,0.00,,,0.00,Wunderground v.1.15,2013-03-29 06:22:00,
2013-03-29 01:28:00,37.3,30.1,30.32,ENE,60,1.0,7.0,75,0.00,,,0.00,Wunderground v.1.15,2013-03-29 06:28:00,
2013-03-29 01:38:00,37.0,29.8,30.33,NW,323,1.0,7.0,75,0.00,,,0.00,Wunderground v.1.15,2013-03-29 06:38:00,
2013-03-29 01:40:00,37.0,29.8,30.33,NW,323,0.0,7.0,75,0.00,,,0.00,Wunderground v.1.15,2013-03-29 06:40:00,
2013-03-29 01:42:00,37.0,29.8,30.33,NW,323,0.0,7.0,75,0.00,,,0.00,Wunderground v.1.15,2013-03-29 06:42:00,
2013-03-29 01:44:00,37.0,29.8,30.32,NW,323,0.0,7.0,75,0.00,,,0.00,Wunderground v.1.15,2013-03-29 06:44:00,
2013-03-29 01:48:00,36.9,30.0,30.32,NW,324,0.0,7.0,76,0.00,,,0.00,Wunderground v.1.15,2013-03-29 06:48:00,
2013-03-29 01:50:00,36.8,29.9,30.32,North,6,1.0,7.0,76,0.00,,,0.00,Wunderground v.1.15,2013-03-29 06:50:00,
2013-03-29 01:52:00,36.8,29.9,30.32,NNE,26,1.0,7.0,76,0.00,,,0.00,Wunderground v.1.15,2013-03-29 06:52:00,
2013-03-29 01:54:00,36.7,30.2,30.32,NNE,33,1.0,7.0,77,0.00,,,0.00,Wunderground v.1.15,2013-03-29 06:54:00,
2013-03-29 02:00:00,37.2,30.0,30.32,ENE,63,2.0,2.0,75,0.00,,,0.00,Wunderground v.1.15,2013-03-29 07:00:00,
2013-03-29 02:02:00,37.2,30.0,30.32,ENE,63,2.0,7.0,75,0.00,,,0.00,Wunderground v.1.15,2013-03-29 07:02:00,
2013-03-29 02:04:00,37.1,29.6,30.32,ENE,63,1.0,7.0,74,0.00,,,0.00,Wunderground v.1.15,2013-03-29 07:04:00,
2013-03-29 02:08:00,37.1,29.6,30.32,ENE,63,1.0,7.0,74,0.00,,,0.00,Wunderground v.1.15,2013-03-29 07:08:00,
2013-03-29 02:10:00,37.1,29.6,30.32,ENE,63,0.0,7.0,74,0.00,,,0.00,Wunderground v.1.15,2013-03-29 07:10:00,
2013-03-29 02:12:00,37.0,29.5,30.32,ENE,62,0.0,7.0,74,0.00,,,0.00,Wunderground v.1.15,2013-03-29 07:12:00,
2013-03-29 02:14:00,37.0,29.5,30.32,ENE,62,0.0,7.0,74,0.00,,,0.00,Wunderground v.1.15,2013-03-29 07:14:00,
2013-03-29 02:18:00,37.2,29.3,30.32,ENE,74,0.0,7.0,73,0.00,,,0.00,Wunderground v.1.15,2013-03-29 07:18:00,
2013-03-29 02:20:00,37.3,29.4,30.32,ENE,73,1.0,7.0,73,0.00,,,0.00,Wunderground v.1.15,2013-03-29 07:20:00,
2013-03-29 02:26:00,37.8,29.6,30.31,ENE,74,2.0,7.0,72,0.00,,,0.00,Wunderground v.1.15,2013-03-29 07:26:00,
2013-03-29 02:28:00,37.8,29.6,30.31,East,86,2.0,7.0,72,0.00,,,0.00,Wunderground v.1.15,2013-03-29 07:28:00,
2013-03-29 02:32:00,37.8,29.6,30.31,East,91,3.0,7.0,72,0.00,,,0.00,Wunderground v.1.15,2013-03-29 07:32:00,
2013-03-29 02:34:00,37.8,29.6,30.31,East,96,3.0,7.0,72,0.00,,,0.00,Wunderground v.1.15,2013-03-29 07:34:00,
2013-03-29 02:40:00,37.7,29.5,30.31,East,88,3.0,7.0,72,0.00,,,0.00,Wunderground v.1.15,2013-03-29 07:40:00,
2013-03-29 02:44:00,37.6,29.4,30.31,East,89,3.0,7.0,72,0.00,,,0.00,Wunderground v.1.15,2013-03-29 07:44:00,
2013-03-29 02:48:00,37.6,29.4,30.31,East,85,3.0,7.0,72,0.00,,,0.00,Wunderground v.1.15,2013-03-29 07:48:00,
2013-03-29 02:50:00,37.5,29.3,30.31,East,79,3.0,7.0,72,0.00,,,0.00,Wunderground v.1.15,2013-03-29 07:50:00,
2013-03-29 02:54:00,37.6,29.0,30.30,ENE,74,3.0,7.0,71,0.00,,,0.00,Wunderground v.1.15,2013-03-29 07:54:00,
2013-03-29 02:58:00,37.6,29.0,30.30,ENE,65,4.0,7.0,71,0.00,,,0.00,Wunderground v.1.15,2013-03-29 07:58:00,
2013-03-29 03:00:00,37.7,29.1,30.30,ENE,65,4.0,7.0,71,0.00,,,0.00,Wunderground v.1.15,2013-03-29 08:00:00,
2013-03-29 03:04:00,37.7,29.1,30.30,ENE,72,5.0,7.0,71,0.00,,,0.00,Wunderground v.1.15,2013-03-29 08:04:00,
2013-03-29 03:08:00,37.7,29.8,30.30,ENE,58,4.0,7.0,73,0.00,,,0.00,Wunderground v.1.15,2013-03-29 08:08:00,
2013-03-29 03:10:00,37.3,29.4,30.30,ENE,58,4.0,4.0,73,0.00,,,0.00,Wunderground v.1.15,2013-03-29 08:10:00,
2013-03-29 03:12:00,37.2,29.3,30.30,ENE,60,4.0,7.0,73,0.00,,,0.00,Wunderground v.1.15,2013-03-29 08:12:00,
2013-03-29 03:18:00,37.6,29.0,30.30,ENE,57,4.0,7.0,71,0.00,,,0.00,Wunderground v.1.15,2013-03-29 08:18:00,
2013-03-29 03:20:00,37.5,29.3,30.31,NE,35,4.0,4.0,72,0.00,,,0.00,Wunderground v.1.15,2013-03-29 08:20:00,
2013-03-29 03:22:00,37.0,29.5,30.30,NNE,29,4.0,7.0,74,0.00,,,0.00,Wunderground v.1.15,2013-03-29 08:22:00,
2013-03-29 03:26:00,35.9,29.7,30.30,NNE,26,4.0,7.0,78,0.00,,,0.00,Wunderground v.1.15,2013-03-29 08:26:00,
2013-03-29 03:28:00,35.6,29.4,30.30,NNE,27,4.0,7.0,78,0.00,,,0.00,Wunderground v.1.15,2013-03-29 08:28:00,
2013-03-29 03:30:00,35.6,29.4,30.30,NNE,29,3.0,7.0,78,0.00,,,0.00,Wunderground v.1.15,2013-03-29 08:30:00,
2013-03-29 03:36:00,35.4,29.5,30.31,NNE,31,3.0,7.0,79,0.00,,,0.00,Wunderground v.1.15,2013-03-29 08:36:00,
2013-03-29 03:42:00,34.7,29.8,30.31,NNE,33,2.0,7.0,82,0.00,,,0.00,Wunderground v.1.15,2013-03-29 08:42:00,
2013-03-29 03:44:00,34.8,29.9,30.31,NNE,26,2.0,7.0,82,0.00,,,0.00,Wunderground v.1.15,2013-03-29 08:44:00,
2013-03-29 03:48:00,34.3,30.0,30.31,NNE,16,2.0,7.0,84,0.00,,,0.00,Wunderground v.1.15,2013-03-29 08:48:00,
2013-03-29 03:50:00,34.1,29.8,30.31,NNE,20,3.0,7.0,84,0.00,,,0.00,Wunderground v.1.15,2013-03-29 08:50:00,
2013-03-29 03:54:00,34.2,29.9,30.30,NNE,20,4.0,7.0,84,0.00,,,0.00,Wunderground v.1.15,2013-03-29 08:54:00,
2013-03-29 03:58:00,33.9,29.9,30.30,NNE,23,5.0,7.0,85,0.00,,,0.00,Wunderground v.1.15,2013-03-29 08:58:00,
2013-03-29 04:00:00,33.9,29.9,30.30,NNE,27,5.0,7.0,85,0.00,,,0.00,Wunderground v.1.15,2013-03-29 09:00:00,
2013-03-29 04:04:00,34.0,30.0,30.30,NNE,27,5.0,7.0,85,0.00,,,0.00,Wunderground v.1.15,2013-03-29 09:04:00,
2013-03-29 04:10:00,34.4,29.8,30.30,NNE,29,5.0,7.0,83,0.00,,,0.00,Wunderground v.1.15,2013-03-29 09:10:00,
2013-03-29 04:12:00,34.4,29.8,30.30,NNE,33,5.0,7.0,83,0.00,,,0.00,Wunderground v.1.15,2013-03-29 09:12:00,
2013-03-29 04:14:00,34.4,29.8,30.30,NNE,31,5.0,7.0,83,0.00,,,0.00,Wunderground v.1.15,2013-03-29 09:14:00,
2013-03-29 04:18:00,34.5,29.9,30.30,NE,37,4.0,7.0,83,0.00,,,0.00,Wunderground v.1.15,2013-03-29 09:18:00,
2013-03-29 04:20:00,34.5,29.9,30.30,NE,51,4.0,7.0,83,0.00,,,0.00,Wunderground v.1.15,2013-03-29 09:20:00,
2013-03-29 04:30:00,35.2,29.6,30.30,NE,41,5.0,5.0,80,0.00,,,0.00,Wunderground v.1.15,2013-03-29 09:30:00,
2013-03-29 04:32:00,35.1,29.9,30.30,NE,40,5.0,7.0,81,0.00,,,0.00,Wunderground v.1.15,2013-03-29 09:32:00,
2013-03-29 04:36:00,34.9,29.7,30.30,NE,44,4.0,7.0,81,0.00,,,0.00,Wunderground v.1.15,2013-03-29 09:36:00,
2013-03-29 04:38:00,35.1,29.6,30.30,NE,56,4.0,7.0,80,0.00,,,0.00,Wunderground v.1.15,2013-03-29 09:38:00,
2013-03-29 04:44:00,35.4,29.5,30.30,NE,42,5.0,7.0,79,0.00,,,0.00,Wunderground v.1.15,2013-03-29 09:44:00,
2013-03-29 04:46:00,35.3,29.7,30.30,NE,37,5.0,7.0,80,0.00,,,0.00,Wunderground v.1.15,2013-03-29 09:46:00,
2013-03-29 04:48:00,35.1,29.6,30.30,NNE,29,5.0,7.0,80,0.00,,,0.00,Wunderground v.1.15,2013-03-29 09:48:00,
2013-03-29 04:52:00,34.7,29.8,30.30,NE,49,3.0,7.0,82,0.00,,,0.00,Wunderground v.1.15,2013-03-29 09:52:00,
2013-03-29 04:54:00,34.5,29.9,30.30,NE,46,3.0,7.0,83,0.00,,,0.00,Wunderground v.1.15,2013-03-29 09:54:00,
2013-03-29 04:56:00,34.4,29.8,30.30,NE,53,3.0,7.0,83,0.00,,,0.00,Wunderground v.1.15,2013-03-29 09:56:00,
2013-03-29 04:58:00,34.4,29.8,30.29,NE,56,3.0,7.0,83,0.00,,,0.00,Wunderground v.1.15,2013-03-29 09:58:00,
2013-03-29 05:02:00,34.5,29.6,30.30,NE,56,4.0,7.0,82,0.00,,,0.00,Wunderground v.1.15,2013-03-29 10:02:00,
2013-03-29 05:04:00,34.7,29.8,30.30,NE,50,5.0,7.0,82,0.00,,,0.00,Wunderground v.1.15,2013-03-29 10:04:00,
2013-03-29 05:08:00,34.9,29.7,30.29,NE,56,6.0,7.0,81,0.00,,,0.00,Wunderground v.1.15,2013-03-29 10:08:00,
2013-03-29 05:10:00,34.9,29.4,30.29,ENE,57,6.0,7.0,80,0.00,,,0.00,Wunderground v.1.15,2013-03-29 10:10:00,
2013-03-29 05:12:00,35.0,29.5,30.29,NE,53,6.0,7.0,80,0.00,,,0.00,Wunderground v.1.15,2013-03-29 10:12:00,
2013-03-29 05:14:00,35.1,29.6,30.29,NE,53,6.0,7.0,80,0.00,,,0.00,Wunderground v.1.15,2013-03-29 10:14:00,
2013-03-29 05:18:00,35.2,29.0,30.29,NE,51,6.0,7.0,78,0.00,,,0.00,Wunderground v.1.15,2013-03-29 10:18:00,
2013-03-29 05:20:00,35.2,29.0,30.29,ENE,64,7.0,7.0,78,0.00,,,0.00,Wunderground v.1.15,2013-03-29 10:20:00,
2013-03-29 05:22:00,35.2,29.0,30.29,ENE,60,7.0,7.0,78,0.00,,,0.00,Wunderground v.1.15,2013-03-29 10:22:00,
2013-03-29 05:26:00,35.2,29.0,30.29,ENE,68,7.0,7.0,78,0.00,,,0.00,Wunderground v.1.15,2013-03-29 10:26:00,
2013-03-29 05:28:00,35.2,29.0,30.29,ENE,68,7.0,7.0,78,0.00,,,0.00,Wunderground v.1.15,2013-03-29 10:28:00,
2013-03-29 05:34:00,35.1,28.9,30.29,ENE,74,7.0,7.0,78,0.00,,,0.00,Wunderground v.1.15,2013-03-29 10:34:00,
2013-03-29 05:38:00,35.1,28.6,30.29,East,81,7.0,7.0,77,0.00,,,0.00,Wunderground v.1.15,2013-03-29 10:38:00,
2013-03-29 05:40:00,35.1,28.6,30.29,East,82,7.0,7.0,77,0.00,,,0.00,Wunderground v.1.15,2013-03-29 10:40:00,
2013-03-29 05:42:00,35.4,28.3,30.29,East,85,6.0,7.0,75,0.00,,,0.00,Wunderground v.1.15,2013-03-29 10:42:00,
2013-03-29 05:48:00,35.3,28.5,30.29,East,82,6.0,7.0,76,0.00,,,0.00,Wunderground v.1.15,2013-03-29 10:48:00,
2013-03-29 05:50:00,35.1,28.3,30.30,East,89,6.0,7.0,76,0.00,,,0.00,Wunderground v.1.15,2013-03-29 10:50:00,
2013-03-29 05:54:00,34.7,28.2,30.30,East,86,6.0,7.0,77,0.00,,,0.00,Wunderground v.1.15,2013-03-29 10:54:00,
2013-03-29 05:56:00,34.5,28.3,30.30,East,87,6.0,7.0,78,0.00,,,0.00,Wunderground v.1.15,2013-03-29 10:56:00,
2013-03-29 06:00:00,34.4,28.2,30.30,East,82,6.0,7.0,78,0.00,,,0.00,Wunderground v.1.15,2013-03-29 11:00:00,
2013-03-29 06:02:00,34.4,28.2,30.30,East,84,6.0,7.0,78,0.00,,,0.00,Wunderground v.1.15,2013-03-29 11:02:00,
2013-03-29 06:04:00,34.4,28.2,30.30,ENE,76,6.0,7.0,78,0.00,,,0.00,Wunderground v.1.15,2013-03-29 11:04:00,
2013-03-29 06:08:00,34.7,28.5,30.30,ENE,72,6.0,7.0,78,0.00,,,0.00,Wunderground v.1.15,2013-03-29 11:08:00,
2013-03-29 06:10:00,34.8,28.3,30.30,ENE,76,6.0,7.0,77,0.00,,,0.00,Wunderground v.1.15,2013-03-29 11:10:00,
2013-03-29 06:12:00,34.9,28.4,30.30,East,79,6.0,7.0,77,0.00,,,0.00,Wunderground v.1.15,2013-03-29 11:12:00,
2013-03-29 06:18:00,34.9,28.4,30.30,ENE,75,6.0,7.0,77,0.00,,,0.00,Wunderground v.1.15,2013-03-29 11:18:00,
2013-03-29 06:22:00,34.8,28.6,30.30,ENE,71,6.0,7.0,78,0.00,,,0.00,Wunderground v.1.15,2013-03-29 11:22:00,
2013-03-29 06:24:00,34.9,28.4,30.30,ENE,71,6.0,7.0,77,0.00,,,0.00,Wunderground v.1.15,2013-03-29 11:24:00,
2013-03-29 06:28:00,34.9,28.7,30.30,ENE,62,6.0,7.0,78,0.00,,,0.00,Wunderground v.1.15,2013-03-29 11:28:00,
2013-03-29 06:30:00,34.8,28.6,30.30,ENE,61,6.0,7.0,78,0.00,,,0.00,Wunderground v.1.15,2013-03-29 11:30:00,
2013-03-29 06:34:00,34.7,28.9,30.30,ENE,72,6.0,7.0,79,0.00,,,0.00,Wunderground v.1.15,2013-03-29 11:34:00,
2013-03-29 06:40:00,34.7,28.9,30.30,East,79,6.0,6.0,79,0.00,,,0.00,Wunderground v.1.15,2013-03-29 11:40:00,
2013-03-29 06:42:00,34.6,28.8,30.30,ENE,74,6.0,7.0,79,0.00,,,0.00,Wunderground v.1.15,2013-03-29 11:42:00,
2013-03-29 06:44:00,34.6,28.8,30.30,ENE,76,6.0,7.0,79,0.00,,,0.00,Wunderground v.1.15,2013-03-29 11:44:00,
2013-03-29 06:48:00,34.8,28.6,30.30,East,83,6.0,7.0,78,0.00,,,0.00,Wunderground v.1.15,2013-03-29 11:48:00,
2013-03-29 06:50:00,34.9,28.4,30.30,East,82,6.0,6.0,77,0.00,,,0.00,Wunderground v.1.15,2013-03-29 11:50:00,
2013-03-29 06:54:00,35.1,28.3,30.30,East,90,6.0,7.0,76,0.00,,,0.00,Wunderground v.1.15,2013-03-29 11:54:00,
2013-03-29 06:58:00,34.9,28.4,30.31,East,89,6.0,7.0,77,0.00,,,0.00,Wunderground v.1.15,2013-03-29 11:58:00,
2013-03-29 07:00:00,34.7,28.2,30.31,East,94,5.0,5.0,77,0.00,,,0.00,Wunderground v.1.15,2013-03-29 12:00:00,
2013-03-29 07:04:00,34.5,28.3,30.31,East,96,5.0,7.0,78,0.00,,,0.00,Wunderground v.1.15,2013-03-29 12:04:00,
2013-03-29 07:08:00,34.7,28.5,30.31,East,92,5.0,7.0,78,0.00,,,0.00,Wunderground v.1.15,2013-03-29 12:08:00,
2013-03-29 07:12:00,34.8,28.6,30.31,East,87,5.0,7.0,78,0.00,,,0.00,Wunderground v.1.15,2013-03-29 12:12:00,
2013-03-29 07:18:00,34.8,29.0,30.31,East,94,4.0,7.0,79,0.00,,,0.00,Wunderground v.1.15,2013-03-29 12:18:00,
2013-03-29 07:22:00,34.9,29.0,30.31,East,94,5.0,7.0,79,0.00,,,0.00,Wunderground v.1.15,2013-03-29 12:22:00,
2013-03-29 07:24:00,35.1,28.9,30.31,East,86,5.0,7.0,78,0.00,,,0.00,Wunderground v.1.15,2013-03-29 12:24:00,
2013-03-29 07:28:00,35.5,29.0,30.31,East,87,5.0,7.0,77,0.00,,,0.00,Wunderground v.1.15,2013-03-29 12:28:00,
2013-03-29 07:30:00,35.6,29.1,30.31,East,86,5.0,7.0,77,0.00,,,0.00,Wunderground v.1.15,2013-03-29 12:30:00,
2013-03-29 07:34:00,35.8,29.3,30.31,East,89,6.0,7.0,77,0.00,,,0.00,Wunderground v.1.15,2013-03-29 12:34:00,
2013-03-29 07:36:00,35.9,29.4,30.31,East,94,6.0,7.0,77,0.00,,,0.00,Wunderground v.1.15,2013-03-29 12:36:00,
2013-03-29 07:40:00,36.2,30.0,30.31,East,89,6.0,6.0,78,0.00,,,0.00,Wunderground v.1.15,2013-03-29 12:40:00,
2013-03-29 07:46:00,36.6,30.1,30.31,East,92,5.0,7.0,77,0.00,,,0.00,Wunderground v.1.15,2013-03-29 12:46:00,
2013-03-29 07:48:00,36.8,29.9,30.31,East,92,5.0,7.0,76,0.00,,,0.00,Wunderground v.1.15,2013-03-29 12:48:00,
2013-03-29 07:50:00,36.9,30.0,30.32,East,92,5.0,5.0,76,0.00,,,0.00,Wunderground v.1.15,2013-03-29 12:50:00,
2013-03-29 07:54:00,37.2,30.3,30.31,East,86,5.0,7.0,76,0.00,,,0.00,Wunderground v.1.15,2013-03-29 12:54:00,
2013-03-29 07:56:00,37.4,30.8,30.32,East,91,4.0,7.0,77,0.00,,,0.00,Wunderground v.1.15,2013-03-29 12:56:00,
2013-03-29 07:58:00,37.6,30.7,30.32,East,82,4.0,7.0,76,0.00,,,0.00,Wunderground v.1.15,2013-03-29 12:58:00,
2013-03-29 08:04:00,38.1,31.2,30.32,East,87,4.0,7.0,76,0.00,,,0.00,Wunderground v.1.15,2013-03-29 13:04:00,
2013-03-29 08:06:00,38.2,31.0,30.32,East,98,5.0,7.0,75,0.00,,,0.00,Wunderground v.1.15,2013-03-29 13:06:00,
2013-03-29 08:10:00,38.4,30.8,30.32,East,98,5.0,7.0,74,0.00,,,0.00,Wunderground v.1.15,2013-03-29 13:10:00,
2013-03-29 08:14:00,38.7,31.5,30.32,East,88,5.0,7.0,75,0.00,,,0.00,Wunderground v.1.15,2013-03-29 13:14:00,
2013-03-29 08:16:00,38.8,30.9,30.32,ESE,103,5.0,7.0,73,0.00,,,0.00,Wunderground v.1.15,2013-03-29 13:16:00,
2013-03-29 08:18:00,38.9,30.3,30.32,East,90,5.0,7.0,71,0.00,,,0.00,Wunderground v.1.15,2013-03-29 13:18:00,
2013-03-29 08:24:00,39.4,30.8,30.32,ESE,108,5.0,7.0,71,0.00,,,0.00,Wunderground v.1.15,2013-03-29 13:24:00,
2013-03-29 08:26:00,39.6,31.7,30.32,ESE,105,5.0,7.0,73,0.00,,,0.00,Wunderground v.1.15,2013-03-29 13:26:00,
2013-03-29 08:28:00,39.8,30.8,30.32,East,101,5.0,7.0,70,0.00,,,0.00,Wunderground v.1.15,2013-03-29 13:28:00,
2013-03-29 08:34:00,40.3,31.6,30.32,East,93,5.0,7.0,71,0.00,,,0.00,Wunderground v.1.15,2013-03-29 13:34:00,
2013-03-29 08:40:00,40.9,31.5,30.32,East,92,4.0,7.0,69,0.00,,,0.00,Wunderground v.1.15,2013-03-29 13:40:00,
2013-03-29 08:44:00,41.3,31.5,30.32,SE,127,5.0,7.0,68,0.00,,,0.00,Wunderground v.1.15,2013-03-29 13:44:00,
2013-03-29 08:48:00,41.9,32.5,30.32,East,101,4.0,7.0,69,0.00,,,0.00,Wunderground v.1.15,2013-03-29 13:48:00,
2013-03-29 08:50:00,41.9,31.7,30.32,East,96,4.0,7.0,67,0.00,,,0.00,Wunderground v.1.15,2013-03-29 13:50:00,
2013-03-29 08:54:00,42.3,32.5,30.32,East,91,4.0,7.0,68,0.00,,,0.00,Wunderground v.1.15,2013-03-29 13:54:00,
2013-03-29 09:00:00,42.8,32.2,30.33,ESE,104,4.0,7.0,66,0.00,,,0.00,Wunderground v.1.15,2013-03-29 14:00:00,
2013-03-29 09:02:00,42.9,31.9,30.33,East,94,4.0,7.0,65,0.00,,,0.00,Wunderground v.1.15,2013-03-29 14:02:00,
2013-03-29 09:08:00,43.5,31.7,30.33,ENE,78,4.0,7.0,63,0.00,,,0.00,Wunderground v.1.15,2013-03-29 14:08:00,
2013-03-29 09:10:00,43.7,32.7,30.33,ESE,104,4.0,7.0,65,0.00,,,0.00,Wunderground v.1.15,2013-03-29 14:10:00,
2013-03-29 09:12:00,43.9,32.5,30.33,ESE,106,4.0,7.0,64,0.00,,,0.00,Wunderground v.1.15,2013-03-29 14:12:00,
2013-03-29 09:18:00,44.3,32.5,30.33,East,91,4.0,7.0,63,0.00,,,0.00,Wunderground v.1.15,2013-03-29 14:18:00,
2013-03-29 09:20:00,44.4,32.2,30.33,East,85,4.0,4.0,62,0.00,,,0.00,Wunderground v.1.15,2013-03-29 14:20:00,
2013-03-29 09:26:00,44.9,31.8,30.32,East,97,4.0,7.0,60,0.00,,,0.00,Wunderground v.1.15,2013-03-29 14:26:00,
2013-03-29 09:28:00,45.1,32.0,30.33,ESE,120,4.0,7.0,60,0.00,,,0.00,Wunderground v.1.15,2013-03-29 14:28:00,
2013-03-29 09:30:00,45.2,31.7,30.33,ESE,108,4.0,7.0,59,0.00,,,0.00,Wunderground v.1.15,2013-03-29 14:30:00,
2013-03-29 09:36:00,45.6,32.1,30.33,ENE,75,4.0,7.0,59,0.00,,,0.00,Wunderground v.1.15,2013-03-29 14:36:00,
2013-03-29 09:38:00,45.7,31.3,30.33,East,86,4.0,7.0,57,0.00,,,0.00,Wunderground v.1.15,2013-03-29 14:38:00,
2013-03-29 09:44:00,45.9,31.1,30.33,NE,43,5.0,7.0,56,0.00,,,0.00,Wunderground v.1.15,2013-03-29 14:44:00,
2013-03-29 09:50:00,46.0,29.8,30.33,ESE,105,6.0,6.0,53,0.00,,,0.00,Wunderground v.1.15,2013-03-29 14:50:00,
2013-03-29 09:52:00,46.2,31.4,30.33,ENE,75,5.0,7.0,56,0.00,,,0.00,Wunderground v.1.15,2013-03-29 14:52:00,
2013-03-29 09:54:00,46.3,30.1,30.33,East,100,5.0,7.0,53,0.00,,,0.00,Wunderground v.1.15,2013-03-29 14:54:00,
2013-03-29 09:58:00,46.5,29.8,30.33,ENE,61,5.0,7.0,52,0.00,,,0.00,Wunderground v.1.15,2013-03-29 14:58:00,
2013-03-29 10:00:00,46.4,30.6,30.33,East,89,5.0,7.0,54,0.00,,,0.00,Wunderground v.1.15,2013-03-29 15:00:00,
2013-03-29 10:04:00,46.6,30.8,30.33,East,79,6.0,7.0,54,0.00,,,0.00,Wunderground v.1.15,2013-03-29 15:04:00,
2013-03-29 10:08:00,46.5,30.3,30.33,East,99,6.0,7.0,53,0.00,,,0.00,Wunderground v.1.15,2013-03-29 15:08:00,
2013-03-29 10:12:00,46.7,30.9,30.32,ESE,113,6.0,8.0,54,0.00,,,0.00,Wunderground v.1.15,2013-03-29 15:12:00,
2013-03-29 10:18:00,47.1,32.2,30.33,NE,54,6.0,8.0,56,0.00,,,0.00,Wunderground v.1.15,2013-03-29 15:18:00,
2013-03-29 10:20:00,47.1,31.7,30.33,ENE,67,6.0,6.0,55,0.00,,,0.00,Wunderground v.1.15,2013-03-29 15:20:00,
2013-03-29 10:26:00,47.3,32.4,30.33,NNE,12,5.0,7.0,56,0.00,,,0.00,Wunderground v.1.15,2013-03-29 15:26:00,
2013-03-29 10:28:00,47.3,31.9,30.33,NE,41,5.0,7.0,55,0.00,,,0.00,Wunderground v.1.15,2013-03-29 15:28:00,
2013-03-29 10:32:00,47.7,31.9,30.33,NNE,16,5.0,7.0,54,0.00,,,0.00,Wunderground v.1.15,2013-03-29 15:32:00,
2013-03-29 10:38:00,47.6,31.8,30.32,NNE,25,5.0,7.0,54,0.00,,,0.00,Wunderground v.1.15,2013-03-29 15:38:00,
2013-03-29 10:40:00,47.6,32.2,30.32,NNE,25,5.0,7.0,55,0.00,,,0.00,Wunderground v.1.15,2013-03-29 15:40:00,
2013-03-29 10:44:00,47.9,32.5,30.33,East,88,5.0,7.0,55,0.00,,,0.00,Wunderground v.1.15,2013-03-29 15:44:00,
2013-03-29 10:50:00,48.2,32.8,30.32,NNE,26,3.0,3.0,55,0.00,,,0.00,Wunderground v.1.15,2013-03-29 15:50:00,
2013-03-29 10:56:00,48.4,33.0,30.33,NE,51,3.0,7.0,55,0.00,,,0.00,Wunderground v.1.15,2013-03-29 15:56:00,
2013-03-29 10:58:00,48.7,33.2,30.32,North,354,3.0,7.0,55,0.00,,,0.00,Wunderground v.1.15,2013-03-29 15:58:00,
2013-03-29 11:00:00,48.8,32.9,30.33,SE,129,3.0,7.0,54,0.00,,,0.00,Wunderground v.1.15,2013-03-29 16:00:00,
2013-03-29 11:04:00,49.0,32.6,30.33,East,87,3.0,7.0,53,0.00,,,0.00,Wunderground v.1.15,2013-03-29 16:04:00,
2013-03-29 11:10:00,49.0,32.6,30.33,NNE,26,3.0,7.0,53,0.00,,,0.00,Wunderground v.1.15,2013-03-29 16:10:00,
2013-03-29 11:12:00,49.1,32.2,30.33,NE,53,4.0,7.0,52,0.00,,,0.00,Wunderground v.1.15,2013-03-29 16:12:00,
2013-03-29 11:16:00,49.1,31.7,30.33,NNW,328,3.0,7.0,51,0.00,,,0.00,Wunderground v.1.15,2013-03-29 16:16:00,
2013-03-29 11:18:00,49.3,31.9,30.33,North,349,2.0,7.0,51,0.00,,,0.00,Wunderground v.1.15,2013-03-29 16:18:00,
2013-03-29 11:20:00,49.4,31.5,30.32,ESE,116,2.0,7.0,50,0.00,,,0.00,Wunderground v.1.15,2013-03-29 16:20:00,
2013-03-29 11:22:00,49.3,31.4,30.32,ESE,103,2.0,7.0,50,0.00,,,0.00,Wunderground v.1.15,2013-03-29 16:22:00,
2013-03-29 11:28:00,50.2,33.7,30.32,North,350,2.0,7.0,53,0.00,,,0.00,Wunderground v.1.15,2013-03-29 16:28:00,
2013-03-29 11:30:00,50.4,32.9,30.32,NNW,348,2.0,7.0,51,0.00,,,0.00,Wunderground v.1.15,2013-03-29 16:30:00,
2013-03-29 11:32:00,50.4,32.9,30.32,NE,39,2.0,7.0,51,0.00,,,0.00,Wunderground v.1.15,2013-03-29 16:32:00,
2013-03-29 11:38:00,50.0,33.5,30.32,NNE,13,3.0,7.0,53,0.00,,,0.00,Wunderground v.1.15,2013-03-29 16:38:00,
2013-03-29 11:40:00,50.3,33.3,30.32,NNE,30,3.0,3.0,52,0.00,,,0.00,Wunderground v.1.15,2013-03-29 16:40:00,
2013-03-29 11:42:00,50.5,33.0,30.32,North,351,2.0,5.0,51,0.00,,,0.00,Wunderground v.1.15,2013-03-29 16:42:00,
2013-03-29 11:44:00,50.6,33.1,30.32,North,9,3.0,8.0,51,0.00,,,0.00,Wunderground v.1.15,2013-03-29 16:44:00,
2013-03-29 11:46:00,50.4,32.4,30.32,North,354,3.0,8.0,50,0.00,,,0.00,Wunderground v.1.15,2013-03-29 16:46:00,
2013-03-29 11:50:00,50.3,32.8,30.32,NNE,23,4.0,4.0,51,0.00,,,0.00,Wunderground v.1.15,2013-03-29 16:50:00,
2013-03-29 11:52:00,50.3,33.3,30.32,ESE,102,4.0,7.0,52,0.00,,,0.00,Wunderground v.1.15,2013-03-29 16:52:00,
2013-03-29 11:56:00,50.3,32.8,30.31,East,94,3.0,8.0,51,0.00,,,0.00,Wunderground v.1.15,2013-03-29 16:56:00,
2013-03-29 11:58:00,50.3,32.8,30.32,NE,43,4.0,8.0,51,0.00,,,0.00,Wunderground v.1.15,2013-03-29 16:58:00,
2013-03-29 12:00:00,50.3,32.4,30.32,NE,50,4.0,7.0,50,0.00,,,0.00,Wunderground v.1.15,2013-03-29 17:00:00,
2013-03-29 12:04:00,50.1,31.7,30.32,NE,56,4.0,7.0,49,0.00,,,0.00,Wunderground v.1.15,2013-03-29 17:04:00,
2013-03-29 12:06:00,50.2,32.3,30.32,ESE,103,4.0,7.0,50,0.00,,,0.00,Wunderground v.1.15,2013-03-29 17:06:00,
2013-03-29 12:08:00,50.2,32.3,30.31,NW,325,4.0,7.0,50,0.00,,,0.00,Wunderground v.1.15,2013-03-29 17:08:00,
2013-03-29 12:12:00,50.6,32.1,30.31,North,350,3.0,7.0,49,0.00,,,0.00,Wunderground v.1.15,2013-03-29 17:12:00,
2013-03-29 12:14:00,50.6,32.1,30.31,NW,319,4.0,7.0,49,0.00,,,0.00,Wunderground v.1.15,2013-03-29 17:14:00,
2013-03-29 12:20:00,51.0,33.0,30.31,NNW,340,3.0,3.0,50,0.00,,,0.00,Wunderground v.1.15,2013-03-29 17:20:00,
2013-03-29 12:22:00,51.3,33.8,30.31,North,357,3.0,7.0,51,0.00,,,0.00,Wunderground v.1.15,2013-03-29 17:22:00,
2013-03-29 12:24:00,51.4,33.4,30.31,North,4,3.0,7.0,50,0.00,,,0.00,Wunderground v.1.15,2013-03-29 17:24:00,
2013-03-29 12:28:00,51.4,33.9,30.31,NW,311,3.0,7.0,51,0.00,,,0.00,Wunderground v.1.15,2013-03-29 17:28:00,
2013-03-29 12:30:00,51.5,33.5,30.31,North,349,4.0,7.0,50,0.00,,,0.00,Wunderground v.1.15,2013-03-29 17:30:00,
2013-03-29 12:36:00,51.7,34.1,30.30,West,274,4.0,7.0,51,0.00,,,0.00,Wunderground v.1.15,2013-03-29 17:36:00,
2013-03-29 12:40:00,51.7,33.6,30.30,North,353,3.0,7.0,50,0.00,,,0.00,Wunderground v.1.15,2013-03-29 17:40:00,
2013-03-29 12:42:00,51.9,33.8,30.30,North,6,3.0,7.0,50,0.00,,,0.00,Wunderground v.1.15,2013-03-29 17:42:00,
2013-03-29 12:44:00,52.3,34.7,30.30,NW,307,3.0,7.0,51,0.00,,,0.00,Wunderground v.1.15,2013-03-29 17:44:00,
2013-03-29 12:46:00,52.6,34.0,30.30,NW,323,2.0,7.0,49,0.00,,,0.00,Wunderground v.1.15,2013-03-29 17:46:00,
2013-03-29 12:50:00,52.5,33.4,30.30,WNW,300,3.0,7.0,48,0.00,,,0.00,Wunderground v.1.15,2013-03-29 17:50:00,
2013-03-29 12:52:00,52.2,33.1,30.30,North,357,3.0,7.0,48,0.00,,,0.00,Wunderground v.1.15,2013-03-29 17:52:00,
2013-03-29 12:54:00,52.1,33.0,30.30,WNW,285,3.0,7.0,48,0.00,,,0.00,Wunderground v.1.15,2013-03-29 17:54:00,
2013-03-29 13:00:00,51.8,33.7,30.30,North,353,5.0,7.0,50,0.00,,,0.00,Wunderground v.1.15,2013-03-29 18:00:00,
2013-03-29 13:02:00,51.8,34.7,30.30,NNW,328,5.0,7.0,52,0.00,,,0.00,Wunderground v.1.15,2013-03-29 18:02:00,
2013-03-29 13:04:00,51.8,33.7,30.30,ENE,58,5.0,7.0,50,0.00,,,0.00,Wunderground v.1.15,2013-03-29 18:04:00,
2013-03-29 13:08:00,51.6,32.5,30.30,SE,145,4.0,7.0,48,0.00,,,0.00,Wunderground v.1.15,2013-03-29 18:08:00,
2013-03-29 13:12:00,51.9,33.3,30.29,East,88,2.0,7.0,49,0.00,,,0.00,Wunderground v.1.15,2013-03-29 18:12:00,
2013-03-29 13:16:00,52.0,33.4,30.29,ESE,119,3.0,7.0,49,0.00,,,0.00,Wunderground v.1.15,2013-03-29 18:16:00,
2013-03-29 13:18:00,51.9,33.3,30.29,ESE,108,3.0,7.0,49,0.00,,,0.00,Wunderground v.1.15,2013-03-29 18:18:00,
2013-03-29 13:22:00,52.1,33.5,30.29,NNW,332,4.0,7.0,49,0.00,,,0.00,Wunderground v.1.15,2013-03-29 18:22:00,
2013-03-29 13:28:00,52.4,32.7,30.29,North,357,3.0,7.0,47,0.00,,,0.00,Wunderground v.1.15,2013-03-29 18:28:00,
2013-03-29 13:32:00,52.6,32.4,30.29,NNE,20,4.0,7.0,46,0.00,,,0.00,Wunderground v.1.15,2013-03-29 18:32:00,
2013-03-29 13:38:00,52.7,33.0,30.29,NNE,12,4.0,7.0,47,0.00,,,0.00,Wunderground v.1.15,2013-03-29 18:38:00,
2013-03-29 13:40:00,52.8,32.6,30.28,East,91,4.0,4.0,46,0.00,,,0.00,Wunderground v.1.15,2013-03-29 18:40:00,
2013-03-29 13:42:00,52.7,33.0,30.28,ENE,63,3.0,7.0,47,0.00,,,0.00,Wunderground v.1.15,2013-03-29 18:42:00,
2013-03-29 13:48:00,53.4,32.6,30.28,NW,304,2.0,7.0,45,0.00,,,0.00,Wunderground v.1.15,2013-03-29 18:48:00,
2013-03-29 13:50:00,53.4,31.4,30.28,West,264,2.0,7.0,43,0.00,,,0.00,Wunderground v.1.15,2013-03-29 18:50:00,
2013-03-29 13:54:00,53.3,31.9,30.28,SW,235,3.0,7.0,44,0.00,,,0.00,Wunderground v.1.15,2013-03-29 18:54:00,
2013-03-29 13:56:00,53.4,33.7,30.28,NNE,16,3.0,7.0,47,0.00,,,0.00,Wunderground v.1.15,2013-03-29 18:56:00,
2013-03-29 14:02:00,53.9,33.6,30.28,North,360,3.0,7.0,46,0.00,,,0.00,Wunderground v.1.15,2013-03-29 19:02:00,
2013-03-29 14:04:00,53.9,34.1,30.28,North,9,2.0,7.0,47,0.00,,,0.00,Wunderground v.1.15,2013-03-29 19:04:00,
2013-03-29 14:08:00,53.6,32.8,30.28,North,11,3.0,7.0,45,0.00,,,0.00,Wunderground v.1.15,2013-03-29 19:08:00,
2013-03-29 14:10:00,53.4,33.1,30.27,NE,50,3.0,7.0,46,0.00,,,0.00,Wunderground v.1.15,2013-03-29 19:10:00,
2013-03-29 14:14:00,53.3,32.5,30.27,ESE,115,3.0,7.0,45,0.00,,,0.00,Wunderground v.1.15,2013-03-29 19:14:00,
2013-03-29 14:18:00,53.3,34.6,30.27,ESE,114,3.0,7.0,49,0.00,,,0.00,Wunderground v.1.15,2013-03-29 19:18:00,
2013-03-29 14:20:00,53.4,33.7,30.27,SSE,149,3.0,3.0,47,0.00,,,0.00,Wunderground v.1.15,2013-03-29 19:20:00,
2013-03-29 14:22:00,53.5,33.2,30.27,East,91,3.0,7.0,46,0.00,,,0.00,Wunderground v.1.15,2013-03-29 19:22:00,
2013-03-29 14:28:00,54.5,33.6,30.27,SSW,205,2.0,7.0,45,0.00,,,0.00,Wunderground v.1.15,2013-03-29 19:28:00,
2013-03-29 14:30:00,54.6,33.7,30.27,SW,222,2.0,7.0,45,0.00,,,0.00,Wunderground v.1.15,2013-03-29 19:30:00,
2013-03-29 14:32:00,54.5,33.6,30.27,SW,226,2.0,7.0,45,0.00,,,0.00,Wunderground v.1.15,2013-03-29 19:32:00,
2013-03-29 14:34:00,54.5,33.6,30.27,SW,225,2.0,7.0,45,0.00,,,0.00,Wunderground v.1.15,2013-03-29 19:34:00,
2013-03-29 14:38:00,54.3,32.8,30.27,SW,225,3.0,7.0,44,0.00,,,0.00,Wunderground v.1.15,2013-03-29 19:38:00,
2013-03-29 14:40:00,54.2,32.7,30.27,WNW,298,3.0,7.0,44,0.00,,,0.00,Wunderground v.1.15,2013-03-29 19:40:00,
2013-03-29 14:44:00,54.2,32.7,30.27,WNW,295,4.0,7.0,44,0.00,,,0.00,Wunderground v.1.15,2013-03-29 19:44:00,
2013-03-29 14:46:00,54.3,33.9,30.27,West,281,3.0,7.0,46,0.00,,,0.00,Wunderground v.1.15,2013-03-29 19:46:00,
2013-03-29 14:48:00,54.3,32.8,30.26,SSW,204,4.0,7.0,44,0.00,,,0.00,Wunderground v.1.15,2013-03-29 19:48:00,
2013-03-29 14:50:00,54.2,33.3,30.26,West,277,4.0,4.0,45,0.00,,,0.00,Wunderground v.1.15,2013-03-29 19:50:00,
2013-03-29 14:52:00,54.2,32.7,30.26,SW,236,4.0,7.0,44,0.00,,,0.00,Wunderground v.1.15,2013-03-29 19:52:00,
2013-03-29 14:58:00,54.6,33.1,30.26,SW,214,3.0,7.0,44,0.00,,,0.00,Wunderground v.1.15,2013-03-29 19:58:00,
2013-03-29 15:00:00,54.7,32.6,30.26,South,169,2.0,2.0,43,0.00,,,0.00,Wunderground v.1.15,2013-03-29 20:00:00,
2013-03-29 15:02:00,54.9,33.4,30.26,SSW,201,1.0,7.0,44,0.00,,,0.00,Wunderground v.1.15,2013-03-29 20:02:00,
2013-03-29 15:06:00,54.7,32.6,30.26,NW,314,1.0,7.0,43,0.00,,,0.00,Wunderground v.1.15,2013-03-29 20:06:00,
2013-03-29 15:08:00,54.1,32.6,30.26,WNW,285,1.0,7.0,44,0.00,,,0.00,Wunderground v.1.15,2013-03-29 20:08:00,
2013-03-29 15:10:00,53.7,32.3,30.26,NW,307,2.0,7.0,44,0.00,,,0.00,Wunderground v.1.15,2013-03-29 20:10:00,
2013-03-29 15:12:00,53.3,31.9,30.26,West,278,2.0,7.0,44,0.00,,,0.00,Wunderground v.1.15,2013-03-29 20:12:00,
2013-03-29 15:18:00,54.1,34.8,30.25,SE,127,2.0,7.0,48,0.00,,,0.00,Wunderground v.1.15,2013-03-29 20:18:00,
2013-03-29 15:20:00,54.6,34.8,30.25,WNW,285,1.0,7.0,47,0.00,,,0.00,Wunderground v.1.15,2013-03-29 20:20:00,
2013-03-29 15:22:00,55.1,33.0,30.25,WNW,297,1.0,7.0,43,0.00,,,0.00,Wunderground v.1.15,2013-03-29 20:22:00,
2013-03-29 15:28:00,55.6,32.8,30.25,East,84,1.0,7.0,42,0.00,,,0.00,Wunderground v.1.15,2013-03-29 20:28:00,
2013-03-29 15:30:00,55.2,32.5,30.25,East,95,1.0,7.0,42,0.00,,,0.00,Wunderground v.1.15,2013-03-29 20:30:00,
2013-03-29 15:34:00,55.2,33.6,30.25,NNW,343,2.0,7.0,44,0.00,,,0.00,Wunderground v.1.15,2013-03-29 20:34:00,
2013-03-29 15:36:00,55.1,33.6,30.25,North,355,2.0,7.0,44,0.00,,,0.00,Wunderground v.1.15,2013-03-29 20:36:00,
2013-03-29 15:38:00,54.6,32.5,30.25,NNW,336,3.0,7.0,43,0.00,,,0.00,Wunderground v.1.15,2013-03-29 20:38:00,
2013-03-29 15:40:00,54.3,32.3,30.25,NNW,336,3.0,7.0,43,0.00,,,0.00,Wunderground v.1.15,2013-03-29 20:40:00,
2013-03-29 15:44:00,53.7,32.8,30.25,WNW,298,4.0,7.0,45,0.00,,,0.00,Wunderground v.1.15,2013-03-29 20:44:00,
2013-03-29 15:46:00,53.6,32.8,30.25,WNW,283,4.0,7.0,45,0.00,,,0.00,Wunderground v.1.15,2013-03-29 20:46:00,
2013-03-29 15:48:00,53.6,33.3,30.25,NW,307,4.0,7.0,46,0.00,,,0.00,Wunderground v.1.15,2013-03-29 20:48:00,
2013-03-29 15:50:00,53.5,32.7,30.25,NW,316,4.0,4.0,45,0.00,,,0.00,Wunderground v.1.15,2013-03-29 20:50:00,
2013-03-29 15:54:00,53.3,32.5,30.24,WSW,238,3.0,7.0,45,0.00,,,0.00,Wunderground v.1.15,2013-03-29 20:54:00,
2013-03-29 16:00:00,53.3,33.0,30.24,NW,304,1.0,1.0,46,0.00,,,0.00,Wunderground v.1.15,2013-03-29 21:00:00,
2013-03-29 16:02:00,53.4,33.1,30.24,NW,325,1.0,2.0,46,0.00,,,0.00,Wunderground v.1.15,2013-03-29 21:02:00,
2013-03-29 16:04:00,53.4,32.6,30.24,NNW,330,1.0,7.0,45,0.00,,,0.00,Wunderground v.1.15,2013-03-29 21:04:00,
2013-03-29 16:08:00,53.2,32.9,30.24,NNE,12,1.0,7.0,46,0.00,,,0.00,Wunderground v.1.15,2013-03-29 21:08:00,
2013-03-29 16:10:00,53.4,33.1,30.24,North,357,1.0,7.0,46,0.00,,,0.00,Wunderground v.1.15,2013-03-29 21:10:00,
2013-03-29 16:16:00,53.7,32.8,30.24,NNE,22,3.0,7.0,45,0.00,,,0.00,Wunderground v.1.15,2013-03-29 21:16:00,
2013-03-29 16:18:00,53.7,32.8,30.24,NNE,13,4.0,7.0,45,0.00,,,0.00,Wunderground v.1.15,2013-03-29 21:18:00,
2013-03-29 16:20:00,53.8,32.9,30.24,NNW,330,4.0,7.0,45,0.00,,,0.00,Wunderground v.1.15,2013-03-29 21:20:00,
2013-03-29 16:22:00,53.8,32.4,30.24,NNW,329,4.0,7.0,44,0.00,,,0.00,Wunderground v.1.15,2013-03-29 21:22:00,
2013-03-29 16:28:00,53.8,32.9,30.24,East,79,4.0,7.0,45,0.00,,,0.00,Wunderground v.1.15,2013-03-29 21:28:00,
2013-03-29 16:34:00,53.9,32.5,30.23,ESE,113,3.0,7.0,44,0.00,,,0.00,Wunderground v.1.15,2013-03-29 21:34:00,
2013-03-29 16:38:00,54.6,34.2,30.23,NE,52,2.0,7.0,46,0.00,,,0.00,Wunderground v.1.15,2013-03-29 21:38:00,
2013-03-29 16:40:00,54.6,32.5,30.23,NE,41,2.0,7.0,43,0.00,,,0.00,Wunderground v.1.15,2013-03-29 21:40:00,
2013-03-29 16:44:00,54.5,33.0,30.23,NNE,23,3.0,7.0,44,0.00,,,0.00,Wunderground v.1.15,2013-03-29 21:44:00,
2013-03-29 16:48:00,54.2,32.2,30.23,East,101,4.0,7.0,43,0.00,,,0.00,Wunderground v.1.15,2013-03-29 21:48:00,
2013-03-29 16:50:00,54.2,33.3,30.23,North,5,4.0,7.0,45,0.00,,,0.00,Wunderground v.1.15,2013-03-29 21:50:00,
2013-03-29 16:52:00,54.3,32.8,30.23,NNE,27,4.0,7.0,44,0.00,,,0.00,Wunderground v.1.15,2013-03-29 21:52:00,
2013-03-29 16:56:00,54.5,31.9,30.23,East,80,3.0,7.0,42,0.00,,,0.00,Wunderground v.1.15,2013-03-29 21:56:00,
2013-03-29 17:00:00,54.5,33.0,30.23,ENE,75,2.0,7.0,44,0.00,,,0.00,Wunderground v.1.15,2013-03-29 22:00:00,
2013-03-29 17:02:00,54.3,31.7,30.23,NE,49,3.0,7.0,42,0.00,,,0.00,Wunderground v.1.15,2013-03-29 22:02:00,
2013-03-29 17:08:00,54.5,31.9,30.23,South,187,3.0,7.0,42,0.00,,,0.00,Wunderground v.1.15,2013-03-29 22:08:00,
2013-03-29 17:10:00,54.9,32.8,30.23,SSE,149,2.0,2.0,43,0.00,,,0.00,Wunderground v.1.15,2013-03-29 22:10:00,
2013-03-29 17:14:00,54.9,31.6,30.23,North,9,2.0,7.0,41,0.00,,,0.00,Wunderground v.1.15,2013-03-29 22:14:00,
2013-03-29 17:16:00,54.8,32.1,30.23,NE,43,1.0,7.0,42,0.00,,,0.00,Wunderground v.1.15,2013-03-29 22:16:00,
2013-03-29 17:18:00,54.6,31.9,30.23,NE,37,2.0,7.0,42,0.00,,,0.00,Wunderground v.1.15,2013-03-29 22:18:00,
2013-03-29 17:20:00,54.6,31.3,30.23,ESE,117,2.0,2.0,41,0.00,,,0.00,Wunderground v.1.15,2013-03-29 22:20:00,
2013-03-29 17:22:00,54.6,31.9,30.23,ESE,108,2.0,7.0,42,0.00,,,0.00,Wunderground v.1.15,2013-03-29 22:22:00,
2013-03-29 17:24:00,54.9,32.8,30.23,SE,143,1.0,7.0,43,0.00,,,0.00,Wunderground v.1.15,2013-03-29 22:24:00,
2013-03-29 17:28:00,55.5,32.8,30.23,SSE,148,1.0,7.0,42,0.00,,,0.00,Wunderground v.1.15,2013-03-29 22:28:00,
2013-03-29 17:30:00,55.6,32.8,30.23,NNW,333,1.0,7.0,42,0.00,,,0.00,Wunderground v.1.15,2013-03-29 22:30:00,
2013-03-29 17:34:00,55.3,32.0,30.23,North,350,2.0,7.0,41,0.00,,,0.00,Wunderground v.1.15,2013-03-29 22:34:00,
2013-03-29 17:40:00,54.9,31.6,30.23,North,360,3.0,3.0,41,0.00,,,0.00,Wunderground v.1.15,2013-03-29 22:40:00,
2013-03-29 17:42:00,54.9,32.2,30.23,NNE,15,2.0,7.0,42,0.00,,,0.00,Wunderground v.1.15,2013-03-29 22:42:00,
2013-03-29 17:46:00,54.7,31.4,30.23,NNE,29,2.0,7.0,41,0.00,,,0.00,Wunderground v.1.15,2013-03-29 22:46:00,
2013-03-29 17:50:00,54.4,31.2,30.23,NNE,20,3.0,7.0,41,0.00,,,0.00,Wunderground v.1.15,2013-03-29 22:50:00,
2013-03-29 17:52:00,54.2,31.6,30.23,North,8,4.0,7.0,42,0.00,,,0.00,Wunderground v.1.15,2013-03-29 22:52:00,
2013-03-29 17:58:00,54.0,31.4,30.23,North,1,3.0,7.0,42,0.00,,,0.00,Wunderground v.1.15,2013-03-29 22:58:00,
2013-03-29 18:00:00,53.9,30.7,30.23,NNW,337,3.0,7.0,41,0.00,,,0.00,Wunderground v.1.15,2013-03-29 23:00:00,
2013-03-29 18:04:00,54.1,30.9,30.23,NW,311,3.0,7.0,41,0.00,,,0.00,Wunderground v.1.15,2013-03-29 23:04:00,
2013-03-29 18:06:00,54.1,30.9,30.23,NW,307,3.0,7.0,41,0.00,,,0.00,Wunderground v.1.15,2013-03-29 23:06:00,
2013-03-29 18:08:00,54.2,30.4,30.23,NNW,338,3.0,7.0,40,0.00,,,0.00,Wunderground v.1.15,2013-03-29 23:08:00,
2013-03-29 18:12:00,54.3,30.5,30.23,WNW,298,2.0,7.0,40,0.00,,,0.00,Wunderground v.1.15,2013-03-29 23:12:00,
2013-03-29 18:14:00,54.3,30.5,30.23,NW,312,2.0,7.0,40,0.00,,,0.00,Wunderground v.1.15,2013-03-29 23:14:00,
2013-03-29 18:18:00,54.2,31.6,30.23,North,358,2.0,7.0,42,0.00,,,0.00,Wunderground v.1.15,2013-03-29 23:18:00,
2013-03-29 18:20:00,54.1,30.9,30.23,NW,323,2.0,2.0,41,0.00,,,0.00,Wunderground v.1.15,2013-03-29 23:20:00,
2013-03-29 18:24:00,54.1,30.9,30.23,NW,319,2.0,7.0,41,0.00,,,0.00,Wunderground v.1.15,2013-03-29 23:24:00,
2013-03-29 18:28:00,53.8,31.8,30.23,North,360,2.0,7.0,43,0.00,,,0.00,Wunderground v.1.15,2013-03-29 23:28:00,
2013-03-29 18:30:00,53.7,32.8,30.23,North,359,3.0,7.0,45,0.00,,,0.00,Wunderground v.1.15,2013-03-29 23:30:00,
2013-03-29 18:34:00,53.3,32.5,30.23,NNW,347,3.0,7.0,45,0.00,,,0.00,Wunderground v.1.15,2013-03-29 23:34:00,
2013-03-29 18:36:00,53.3,32.5,30.23,NNW,347,3.0,7.0,45,0.00,,,0.00,Wunderground v.1.15,2013-03-29 23:36:00,
2013-03-29 18:38:00,53.2,34.5,30.23,NNW,347,3.0,7.0,49,0.00,,,0.00,Wunderground v.1.15,2013-03-29 23:38:00,
2013-03-29 18:44:00,52.9,33.7,30.23,North,355,2.0,7.0,48,0.00,,,0.00,Wunderground v.1.15,2013-03-29 23:44:00,
2013-03-29 18:48:00,52.6,35.5,30.23,North,350,3.0,7.0,52,0.00,,,0.00,Wunderground v.1.15,2013-03-29 23:48:00,
2013-03-29 18:50:00,52.5,35.4,30.23,North,354,3.0,7.0,52,0.00,,,0.00,Wunderground v.1.15,2013-03-29 23:50:00,
2013-03-29 18:54:00,52.1,35.0,30.23,North,353,3.0,7.0,52,0.00,,,0.00,Wunderground v.1.15,2013-03-29 23:54:00,
2013-03-29 19:00:00,51.5,34.9,30.23,North,360,3.0,7.0,53,0.00,,,0.00,Wunderground v.1.15,2013-03-30 00:00:00,
2013-03-29 19:02:00,51.3,35.7,30.23,North,359,3.0,7.0,55,0.00,,,0.00,Wunderground v.1.15,2013-03-30 00:02:00,
2013-03-29 19:04:00,51.1,35.9,30.23,North,360,3.0,7.0,56,0.00,,,0.00,Wunderground v.1.15,2013-03-30 00:04:00,
2013-03-29 19:08:00,50.5,36.3,30.23,North,358,3.0,7.0,58,0.00,,,0.00,Wunderground v.1.15,2013-03-30 00:08:00,
2013-03-29 19:12:00,50.1,36.3,30.23,North,357,3.0,7.0,59,0.00,,,0.00,Wunderground v.1.15,2013-03-30 00:12:00,
2013-03-29 19:16:00,49.5,37.4,30.23,North,358,3.0,7.0,63,0.00,,,0.00,Wunderground v.1.15,2013-03-30 00:16:00,
2013-03-29 19:18:00,49.2,37.5,30.23,North,360,3.0,7.0,64,0.00,,,0.00,Wunderground v.1.15,2013-03-30 00:18:00,
2013-03-29 19:22:00,48.7,37.1,30.23,North,6,3.0,7.0,64,0.00,,,0.00,Wunderground v.1.15,2013-03-30 00:22:00,
2013-03-29 19:24:00,48.6,37.0,30.23,North,9,3.0,7.0,64,0.00,,,0.00,Wunderground v.1.15,2013-03-30 00:24:00,
2013-03-29 19:28:00,48.4,36.4,30.23,North,9,3.0,7.0,63,0.00,,,0.00,Wunderground v.1.15,2013-03-30 00:28:00,
2013-03-29 19:30:00,48.3,36.3,30.23,North,8,3.0,7.0,63,0.00,,,0.00,Wunderground v.1.15,2013-03-30 00:30:00,
2013-03-29 19:32:00,48.2,36.2,30.23,North,8,3.0,7.0,63,0.00,,,0.00,Wunderground v.1.15,2013-03-30 00:32:00,
2013-03-29 19:34:00,48.1,35.7,30.23,North,8,3.0,7.0,62,0.00,,,0.00,Wunderground v.1.15,2013-03-30 00:34:00,
2013-03-29 19:38:00,48.0,35.6,30.23,North,6,3.0,7.0,62,0.00,,,0.00,Wunderground v.1.15,2013-03-30 00:38:00,
2013-03-29 19:42:00,47.8,35.0,30.23,North,8,3.0,7.0,61,0.00,,,0.00,Wunderground v.1.15,2013-03-30 00:42:00,
2013-03-29 19:44:00,47.9,35.1,30.23,North,6,3.0,7.0,61,0.00,,,0.00,Wunderground v.1.15,2013-03-30 00:44:00,
2013-03-29 19:48:00,47.7,35.3,30.23,North,4,3.0,7.0,62,0.00,,,0.00,Wunderground v.1.15,2013-03-30 00:48:00,
2013-03-29 19:50:00,47.5,35.5,30.23,North,359,3.0,7.0,63,0.00,,,0.00,Wunderground v.1.15,2013-03-30 00:50:00,
2013-03-29 19:52:00,47.3,35.7,30.23,North,358,3.0,7.0,64,0.00,,,0.00,Wunderground v.1.15,2013-03-30 00:52:00,
2013-03-29 19:58:00,46.4,35.7,30.23,NNE,20,3.0,7.0,66,0.00,,,0.00,Wunderground v.1.15,2013-03-30 00:58:00,
2013-03-29 20:00:00,46.2,35.5,30.23,NNE,23,3.0,7.0,66,0.00,,,0.00,Wunderground v.1.15,2013-03-30 01:00:00,
2013-03-29 20:04:00,45.8,35.5,30.23,NNE,23,4.0,7.0,67,0.00,,,0.00,Wunderground v.1.15,2013-03-30 01:04:00,
2013-03-29 20:06:00,45.6,35.3,30.23,NNE,23,4.0,7.0,67,0.00,,,0.00,Wunderground v.1.15,2013-03-30 01:06:00,
2013-03-29 20:08:00,45.5,34.8,30.23,NNE,20,4.0,7.0,66,0.00,,,0.00,Wunderground v.1.15,2013-03-30 01:08:00,
2013-03-29 20:12:00,45.4,35.1,30.23,NNE,27,4.0,7.0,67,0.00,,,0.00,Wunderground v.1.15,2013-03-30 01:12:00,
2013-03-29 20:16:00,45.8,34.3,30.23,NNE,27,5.0,7.0,64,0.00,,,0.00,Wunderground v.1.15,2013-03-30 01:16:00,
2013-03-29 20:18:00,46.4,34.1,30.23,NNE,26,5.0,7.0,62,0.00,,,0.00,Wunderground v.1.15,2013-03-30 01:18:00,
2013-03-29 20:20:00,46.7,34.4,30.23,NNE,27,5.0,7.0,62,0.00,,,0.00,Wunderground v.1.15,2013-03-30 01:20:00,
2013-03-29 20:28:00,46.7,34.4,30.23,NNE,27,6.0,7.0,62,0.00,,,0.00,Wunderground v.1.15,2013-03-30 01:28:00,
2013-03-29 20:30:00,46.8,34.0,30.23,NNE,29,6.0,7.0,61,0.00,,,0.00,Wunderground v.1.15,2013-03-30 01:30:00,
2013-03-29 20:32:00,47.0,33.4,30.23,NNE,29,6.0,7.0,59,0.00,,,0.00,Wunderground v.1.15,2013-03-30 01:32:00,
2013-03-29 20:36:00,47.0,33.8,30.23,NNE,30,6.0,7.0,60,0.00,,,0.00,Wunderground v.1.15,2013-03-30 01:36:00,
2013-03-29 20:40:00,46.5,34.2,30.23,NE,34,6.0,6.0,62,0.00,,,0.00,Wunderground v.1.15,2013-03-30 01:40:00,
2013-03-29 20:42:00,46.3,34.0,30.23,NE,37,5.0,7.0,62,0.00,,,0.00,Wunderground v.1.15,2013-03-30 01:42:00,
2013-03-29 20:44:00,46.1,33.8,30.23,NE,34,5.0,7.0,62,0.00,,,0.00,Wunderground v.1.15,2013-03-30 01:44:00,
2013-03-29 20:48:00,46.0,33.3,30.23,NE,34,5.0,7.0,61,0.00,,,0.00,Wunderground v.1.15,2013-03-30 01:48:00,
2013-03-29 20:50:00,45.9,33.2,30.23,NNE,33,5.0,7.0,61,0.00,,,0.00,Wunderground v.1.15,2013-03-30 01:50:00,
2013-03-29 20:52:00,45.8,33.1,30.23,NNE,33,5.0,7.0,61,0.00,,,0.00,Wunderground v.1.15,2013-03-30 01:52:00,
2013-03-29 20:56:00,45.6,32.9,30.24,NNE,29,5.0,7.0,61,0.00,,,0.00,Wunderground v.1.15,2013-03-30 01:56:00,
2013-03-29 21:00:00,45.3,32.6,30.24,NE,44,5.0,5.0,61,0.00,,,0.00,Wunderground v.1.15,2013-03-30 02:00:00,
2013-03-29 21:02:00,45.3,32.6,30.24,NE,40,5.0,7.0,61,0.00,,,0.00,Wunderground v.1.15,2013-03-30 02:02:00,
2013-03-29 21:06:00,45.3,32.2,30.24,NE,42,5.0,7.0,60,0.00,,,0.00,Wunderground v.1.15,2013-03-30 02:06:00,
2013-03-29 21:08:00,45.2,32.5,30.24,NE,41,5.0,7.0,61,0.00,,,0.00,Wunderground v.1.15,2013-03-30 02:08:00,
2013-03-29 21:10:00,45.1,32.4,30.24,NE,43,5.0,7.0,61,0.00,,,0.00,Wunderground v.1.15,2013-03-30 02:10:00,
2013-03-29 21:12:00,45.0,32.3,30.24,NE,44,5.0,7.0,61,0.00,,,0.00,Wunderground v.1.15,2013-03-30 02:12:00,
2013-03-29 21:14:00,45.0,31.9,30.24,NE,53,5.0,7.0,60,0.00,,,0.00,Wunderground v.1.15,2013-03-30 02:14:00,
2013-03-29 21:18:00,45.1,31.6,30.24,ENE,64,6.0,7.0,59,0.00,,,0.00,Wunderground v.1.15,2013-03-30 02:18:00,
2013-03-29 21:20:00,45.1,32.0,30.24,ENE,72,7.0,7.0,60,0.00,,,0.00,Wunderground v.1.15,2013-03-30 02:20:00,
2013-03-29 21:24:00,44.9,31.4,30.24,ENE,67,7.0,7.0,59,0.00,,,0.00,Wunderground v.1.15,2013-03-30 02:24:00,
2013-03-29 21:28:00,45.1,32.4,30.24,ENE,63,7.0,8.0,61,0.00,,,0.00,Wunderground v.1.15,2013-03-30 02:28:00,
2013-03-29 21:30:00,44.9,32.7,30.24,ENE,58,7.0,8.0,62,0.00,,,0.00,Wunderground v.1.15,2013-03-30 02:30:00,
2013-03-29 21:32:00,44.7,32.5,30.24,ENE,63,7.0,8.0,62,0.00,,,0.00,Wunderground v.1.15,2013-03-30 02:32:00,
2013-03-29 21:34:00,44.4,32.6,30.24,ENE,65,7.0,8.0,63,0.00,,,0.00,Wunderground v.1.15,2013-03-30 02:34:00,
2013-03-29 21:38:00,43.7,32.7,30.24,ENE,58,8.0,8.0,65,0.00,,,0.00,Wunderground v.1.15,2013-03-30 02:38:00,
2013-03-29 21:40:00,43.6,32.6,30.24,ENE,60,8.0,8.0,65,0.00,,,0.00,Wunderground v.1.15,2013-03-30 02:40:00,
2013-03-29 21:42:00,43.6,32.2,30.24,ENE,58,8.0,8.0,64,0.00,,,0.00,Wunderground v.1.15,2013-03-30 02:42:00,
2013-03-29 21:44:00,43.6,32.6,30.24,NE,54,8.0,8.0,65,0.00,,,0.00,Wunderground v.1.15,2013-03-30 02:44:00,
2013-03-29 21:46:00,43.5,32.5,30.24,NE,51,8.0,8.0,65,0.00,,,0.00,Wunderground v.1.15,2013-03-30 02:46:00,
2013-03-29 21:48:00,43.6,32.2,30.24,ENE,63,8.0,8.0,64,0.00,,,0.00,Wunderground v.1.15,2013-03-30 02:48:00,
2013-03-29 21:52:00,43.4,32.0,30.24,ENE,74,8.0,8.0,64,0.00,,,0.00,Wunderground v.1.15,2013-03-30 02:52:00,
2013-03-29 21:54:00,43.3,32.3,30.24,ENE,65,8.0,8.0,65,0.00,,,0.00,Wunderground v.1.15,2013-03-30 02:54:00,
2013-03-29 21:58:00,42.4,32.2,30.24,East,82,8.0,8.0,67,0.00,,,0.00,Wunderground v.1.15,2013-03-30 02:58:00,
2013-03-29 22:00:00,42.2,32.0,30.24,East,79,7.0,7.0,67,0.00,,,0.00,Wunderground v.1.15,2013-03-30 03:00:00,
2013-03-29 22:02:00,42.0,31.8,30.24,East,91,7.0,7.0,67,0.00,,,0.00,Wunderground v.1.15,2013-03-30 03:02:00,
2013-03-29 22:08:00,41.0,32.0,30.24,ENE,75,7.0,7.0,70,0.00,,,0.00,Wunderground v.1.15,2013-03-30 03:08:00,
2013-03-29 22:10:00,40.9,31.5,30.24,East,79,7.0,7.0,69,0.00,,,0.00,Wunderground v.1.15,2013-03-30 03:10:00,
2013-03-29 22:14:00,40.7,32.0,30.24,East,88,6.0,7.0,71,0.00,,,0.00,Wunderground v.1.15,2013-03-30 03:14:00,
2013-03-29 22:16:00,40.4,31.7,30.24,East,93,6.0,7.0,71,0.00,,,0.00,Wunderground v.1.15,2013-03-30 03:16:00,
2013-03-29 22:18:00,40.1,32.1,30.24,East,84,6.0,7.0,73,0.00,,,0.00,Wunderground v.1.15,2013-03-30 03:18:00,
2013-03-29 22:24:00,39.7,32.1,30.24,East,84,6.0,7.0,74,0.00,,,0.00,Wunderground v.1.15,2013-03-30 03:24:00,
2013-03-29 22:28:00,40.0,32.0,30.24,East,85,7.0,8.0,73,0.00,,,0.00,Wunderground v.1.15,2013-03-30 03:28:00,
2013-03-29 22:30:00,39.9,32.3,30.24,East,82,7.0,7.0,74,0.00,,,0.00,Wunderground v.1.15,2013-03-30 03:30:00,
2013-03-29 22:34:00,39.7,32.1,30.24,East,88,7.0,7.0,74,0.00,,,0.00,Wunderground v.1.15,2013-03-30 03:34:00,
2013-03-29 22:36:00,39.6,32.0,30.24,East,83,7.0,7.0,74,0.00,,,0.00,Wunderground v.1.15,2013-03-30 03:36:00,
2013-03-29 22:38:00,39.7,32.1,30.24,East,82,7.0,7.0,74,0.00,,,0.00,Wunderground v.1.15,2013-03-30 03:38:00,
2013-03-29 22:40:00,39.8,32.2,30.24,East,81,7.0,7.0,74,0.00,,,0.00,Wunderground v.1.15,2013-03-30 03:40:00,
2013-03-29 22:42:00,40.0,32.0,30.24,ENE,78,7.0,8.0,73,0.00,,,0.00,Wunderground v.1.15,2013-03-30 03:42:00,
2013-03-29 22:48:00,40.5,31.8,30.24,East,85,8.0,8.0,71,0.00,,,0.00,Wunderground v.1.15,2013-03-30 03:48:00,
2013-03-29 22:50:00,40.6,31.9,30.24,East,89,8.0,8.0,71,0.00,,,0.00,Wunderground v.1.15,2013-03-30 03:50:00,
2013-03-29 22:54:00,40.6,31.9,30.24,East,82,8.0,8.0,71,0.00,,,0.00,Wunderground v.1.15,2013-03-30 03:54:00,
2013-03-29 22:56:00,40.5,31.8,30.24,East,83,8.0,8.0,71,0.00,,,0.00,Wunderground v.1.15,2013-03-30 03:56:00,
2013-03-29 23:00:00,40.2,31.9,30.24,East,81,8.0,8.0,72,0.00,,,0.00,Wunderground v.1.15,2013-03-30 04:00:00,
2013-03-29 23:02:00,40.2,31.9,30.24,East,79,8.0,8.0,72,0.00,,,0.00,Wunderground v.1.15,2013-03-30 04:02:00,
2013-03-29 23:06:00,40.0,32.0,30.24,East,85,7.0,8.0,73,0.00,,,0.00,Wunderground v.1.15,2013-03-30 04:06:00,
2013-03-29 23:08:00,39.8,31.8,30.24,East,86,7.0,8.0,73,0.00,,,0.00,Wunderground v.1.15,2013-03-30 04:08:00,
2013-03-29 23:12:00,39.5,31.9,30.24,East,79,7.0,8.0,74,0.00,,,0.00,Wunderground v.1.15,2013-03-30 04:12:00,
2013-03-29 23:14:00,39.5,31.9,30.24,ENE,77,7.0,8.0,74,0.00,,,0.00,Wunderground v.1.15,2013-03-30 04:14:00,
2013-03-29 23:16:00,39.5,31.9,30.24,East,79,7.0,8.0,74,0.00,,,0.00,Wunderground v.1.15,2013-03-30 04:16:00,
2013-03-29 23:20:00,39.3,32.0,30.24,ENE,75,7.0,7.0,75,0.00,,,0.00,Wunderground v.1.15,2013-03-30 04:20:00,
2013-03-29 23:22:00,39.2,31.9,30.24,East,81,7.0,7.0,75,0.00,,,0.00,Wunderground v.1.15,2013-03-30 04:22:00,
2013-03-29 23:24:00,39.1,32.2,30.24,East,85,7.0,7.0,76,0.00,,,0.00,Wunderground v.1.15,2013-03-30 04:24:00,
2013-03-29 23:28:00,38.9,32.0,30.24,East,88,7.0,7.0,76,0.00,,,0.00,Wunderground v.1.15,2013-03-30 04:28:00,
2013-03-29 23:34:00,38.9,31.6,30.24,East,92,7.0,7.0,75,0.00,,,0.00,Wunderground v.1.15,2013-03-30 04:34:00,
2013-03-29 23:38:00,38.7,31.8,30.23,East,86,7.0,7.0,76,0.00,,,0.00,Wunderground v.1.15,2013-03-30 04:38:00,
2013-03-29 23:40:00,38.6,31.7,30.23,East,86,7.0,7.0,76,0.00,,,0.00,Wunderground v.1.15,2013-03-30 04:40:00,
2013-03-29 23:42:00,38.5,31.6,30.23,East,95,7.0,7.0,76,0.00,,,0.00,Wunderground v.1.15,2013-03-30 04:42:00,
2013-03-29 23:46:00,38.3,31.7,30.23,East,99,7.0,7.0,77,0.00,,,0.00,Wunderground v.1.15,2013-03-30 04:46:00,
2013-03-29 23:48:00,38.3,31.7,30.23,East,91,7.0,7.0,77,0.00,,,0.00,Wunderground v.1.15,2013-03-30 04:48:00,
2013-03-29 23:54:00,38.1,31.5,30.23,East,99,7.0,7.0,77,0.00,,,0.00,Wunderground v.1.15,2013-03-30 04:54:00,
2013-03-29 23:58:00,37.8,31.2,30.23,East,99,6.0,7.0,77,0.00,,,0.00,Wunderground v.1.15,2013-03-30 04:58:00,